Crossville, TN

10:47 PM CDT on March 28, 2017 (GMT -0500)
Crossville Memorial-Whitson

Weather History for KCSV - October, 2013

Change the Weather History Date:

Thursday, October 3, 2013

  Actual Average Record
Temperature  
Mean Temperature 71 °F 61 °F  
Max Temperature 80 °F 72 °F 84 °F (1986)
Min Temperature 61 °F 50 °F 26 °F (1974)
Degree Days  
Heating Degree Days 0    
Month to date heating degree days 0  
Since 1 July heating degree days 15  
Cooling Degree Days 6    
Month to date cooling degree days 14  
Year to date cooling degree days 907  
Growing Degree Days 22 (Base 50)    
Moisture  
Dew Point 62 °F    
Average Humidity 72    
Maximum Humidity 90    
Minimum Humidity 54    
Precipitation  
Precipitation 0.00 in 0.10 in 2.60 in (1962)
Month to date precipitation 0.01 0.32  
Year to date precipitation 49.66 42.32  
Sea Level Pressure  
Sea Level Pressure 30.09 in    
Wind  
Wind Speed 2 mph (SW)    
Max Wind Speed 10 mph    
Max Gust Speed 17 mph    
Visibility 9 miles    
Events      
T = Trace of Precipitation, MM = Missing Value Source: NWS Daily Summary

Daily Weather History Graph

Daily Weather History Graph

Search for Another Location

Airport or City:

Trip Planner

Search our weather history database for the weather conditions in past years. The results will help you decide how hot, cold, wet, or windy it might be!

Date:

Astronomy

Oct. 03, 2013 Rise Set
Actual Time 6:37 AM CDT 6:20 PM CDT
Civil Twilight 6:11 AM CDT 6:46 PM CDT
Nautical Twilight 5:41 AM CDT 7:15 PM CDT
Astronomical Twilight 5:12 AM CDT 7:45 PM CDT
Moon 5:11 AM CDT (10/3) 5:28 PM CDT (10/3)
Length of Visible Light 12h 34m
Length of Day
11h 43m
Waning Crescent, 2% of the Moon is Illuminated
Oct 3
Waning Crescent
Oct 4
New
Oct 11
First Quarter
Oct 18
Full
Oct 26
Last Quarter

Hourly Weather History & Observations

Time (CDT) Temp. Heat Index Dew Point Humidity Pressure Visibility Wind Dir Wind Speed Gust Speed Precip Events Conditions
12:53 AM 69.1 °F - 64.9 °F 87% 30.10 in 8.0 mi Calm Calm - N/A   Overcast
1:53 AM 68.0 °F - 64.0 °F 87% 30.09 in 9.0 mi Calm Calm - N/A   Partly Cloudy
2:53 AM 68.0 °F - 64.0 °F 87% 30.08 in 9.0 mi Calm Calm - N/A   Clear
3:53 AM 66.9 °F - 63.0 °F 87% 30.08 in 9.0 mi Calm Calm - N/A   Mostly Cloudy
4:53 AM 66.0 °F - 63.0 °F 90% 30.09 in 7.0 mi Calm Calm - N/A   Partly Cloudy
5:53 AM 66.9 °F - 63.0 °F 87% 30.10 in 6.0 mi Calm Calm - N/A   Mostly Cloudy
6:53 AM 68.0 °F - 62.1 °F 81% 30.11 in 10.0 mi Calm Calm - N/A   Overcast
7:53 AM 69.1 °F - 63.0 °F 81% 30.12 in 9.0 mi Calm Calm - N/A   Overcast
8:53 AM 72.0 °F - 64.0 °F 76% 30.13 in 10.0 mi SSW 3.5 mph - N/A   Clear
9:53 AM 73.9 °F - 63.0 °F 68% 30.13 in 10.0 mi WSW 3.5 mph - N/A   Clear
10:53 AM 77.0 °F - 62.1 °F 60% 30.12 in 10.0 mi SW 5.8 mph - N/A   Clear
11:53 AM 78.1 °F - 62.1 °F 58% 30.11 in 10.0 mi West 6.9 mph - N/A   Clear
12:53 PM 75.9 °F - 61.0 °F 60% 30.09 in 10.0 mi Variable 3.5 mph - N/A   Mostly Cloudy
1:53 PM 75.9 °F - 61.0 °F 60% 30.08 in 10.0 mi South 5.8 mph - N/A   Mostly Cloudy
2:53 PM 80.1 °F 81.2 °F 62.1 °F 54% 30.06 in 10.0 mi South 8.1 mph 17.3 mph N/A   Mostly Cloudy
3:53 PM 77.0 °F - 62.1 °F 60% 30.06 in 10.0 mi Variable 4.6 mph - N/A   Partly Cloudy
4:53 PM 75.9 °F - 62.1 °F 62% 30.06 in 10.0 mi South 4.6 mph - N/A   Partly Cloudy
5:53 PM 73.9 °F - 62.1 °F 66% 30.06 in 10.0 mi Calm Calm - N/A   Clear
6:53 PM 69.1 °F - 63.0 °F 81% 30.07 in 10.0 mi Calm Calm - N/A   Clear
7:53 PM 66.9 °F - 62.1 °F 84% 30.09 in 10.0 mi Calm Calm - N/A   Clear
8:53 PM 64.9 °F - 61.0 °F 87% 30.10 in 10.0 mi Calm Calm - N/A   Clear
9:53 PM 64.9 °F - 60.1 °F 84% 30.11 in 10.0 mi Calm Calm - N/A   Clear
11:53 PM 63.0 °F - 59.0 °F 87% 30.10 in 6.0 mi Calm Calm - N/A   Clear